Regional Weather Roundup
Issued by NWS Green Bay, WI

Home | Current Version | Previous Version | Text Only | Print | Product List | Glossary On
Versions: 1 2 3 4 5 6 7 8 9 10 11 12 13 14 15 16 17 18 19 20 21 22 23 24 25 26 27 28 29 30 31 32 33 34 35 36 37 38 39 40 41 42 43 44 45 46 47 48 49 50
365
ASUS43 KGRB 260600
RWRGRB

NORTH-CENTRAL AND NORTHEAST WISCONSIN REGIONAL WEATHER ROUNDUP
NATIONAL WEATHER SERVICE GREEN BAY WI
100 AM CDT FRI MAY 26 2017

WIZ005-009-010>012-018-019-260700-
NORTH CENTRAL WISCONSIN

CITY           SKY/WX    TMP DP  RH WIND       PRES   REMARKS
IRONWOOD       CLOUDY    60  46  59 SE10G20   29.74S
MANITOWISH WTR NOT AVBL
ARBOR VITAE    NOT AVBL
EAGLE RIVER    NOT AVBL
LAND O LAKES   NOT AVBL
RHINELANDER    CLOUDY    58  51  78 SE7       29.78R
PHILLIPS       CLOUDY    55  52  91 CALM      29.74S
ANTIGO         NOT AVBL
TOMAHAWK       NOT AVBL
MERRILL        NOT AVBL
$$

WIZ013-073-260700-
NORTHEAST WISCONSIN

CITY           SKY/WX    TMP DP  RH WIND       PRES   REMARKS
IRON MOUNTAIN  FOG       47  44  90 CALM      29.79R VSB 1/2
MARINETTE      CLEAR     48  48 100 CALM      29.80R FOG
$$

WIZ017-030-035>037-045-260700-
CENTRAL WISCONSIN

CITY           SKY/WX    TMP DP  RH WIND       PRES   REMARKS
MEDFORD        NOT AVBL
WAUSAU         CLOUDY    59  51  75 SE5       29.76R
MOSINEE        NOT AVBL
MARSHFIELD     PTCLDY    57  50  77 S5        29.76R
WISC RAPIDS    CLOUDY    55  51  86 S3        29.78R
STEVENS POINT  NOT AVBL
WAUPACA        NOT AVBL
SHAWANO        NOT AVBL
CLINTONVILLE   CLOUDY    55  50  82 E3        29.78F
WAUTOMA        MOCLDY    53  51  93 CALM      29.78R
$$

WIZ038-039-048-051-260700-
FOX VALLEY

CITY           SKY/WX    TMP DP  RH WIND       PRES   REMARKS
NWS GREEN BAY  CLEAR     53  52  96 CALM      29.79R
APPLETON       NOT AVBL
OSHKOSH        CLEAR     56  52  86 CALM      29.77S
FOND DU LAC    PTCLDY    52  49  89 NE3       29.77F
$$

WIZ022-050-052-260700-
EAST CENTRAL WISCONSIN

CITY           SKY/WX    TMP DP  RH WIND       PRES   REMARKS
EPHRAIM        NOT AVBL
WASHINGTON ISL NOT AVBL
STURGEON BAY   PTCLDY    50  49  96 N5        29.79S
MANITOWOC      NOT AVBL
SHEBOYGAN      CLEAR     50  50 100 N3        29.78S
$$

LMZ563-521-522-541>543-260700-
LAKESHORE

STATION/POSITION TIME  TEMP    WIND        PRES    VSBY  WAVE
                       AIR SEA DIR/SP/G                  HT/PER
                 (UTC) (F)     (DEG/KT/KT) (MB)    (MI)  (FT/S)
SHEBOYGAN LKSHOR 0500   53      20/ 10/ 11 1008.3R
KEWAUNEE LKSHORE 0530   52     290/  3/  4 1008.2R
NORTHPORT PIER   0540   50     350/  3/  5 1008.5S
N MID LAKE BUOY  0450   46 41   40/ 10/ 12 1008.9R         0
CHAMBERS ISLAND  0540   50     240/  3/  4 1008.1S
MENOMINEE LKSHOR 0530          300/  2/  4 1007.8F
$$




USA.gov is the U.S. government's official web portal to all federal, state and local government web resources and services.